Location: 10033 Water Well
(34.0865°N, 106.8959°W)
Time: 22:13:19
(UTC+00:00)

Okean 3 - Pass Details

Date: 13 January 2026
Orbit: 541 x 564 km, 82.5° (Epoch: 11 February)

Event Time Altitude Azimuth Distance (km) Brightness Sun altitude
Rises 01:58:33 0° 188° (S) 2,741 7.2 -20.3°
Reaches altitude 10° 02:00:44 10° 189° (S) 1,847 6.3 -20.8°
Maximum altitude 02:04:48 79° 276° (W) 576 3.4 -21.6°
Enters shadow 02:06:40 31° 359° (N) 993 4.5 -22.0°
